Dewpoint
49 49 49 49 50 50 50 50 50 50 52 54 55 55 56 56 52 44 18 22 26 37 40 35 39 39 41 41 42 40 41 44 43 45 45 42 40 43 45 47 47 49 49 50 57
48 48 49 49 49 50 50 49 50 50 52 53 54 55 56 56 44 27 25 29 34 46 31 31 35 38 37 39 38 35 38 39 45 44 43 42 41 42 43 44 47 49 50 53 56
48 48 48 48 48 48 49 49 49 49 51 53 54 55 56 55 37 21 33 27 36 48 33 36 37 37 35 35 34 30 37 41 41 44 44 42 40 43 42 42 47 48 50 53 54
47 47 48 48 47 48 49 49 48 48 50 52 53 55 55 49 18 31 43 33 42 45 35 33 35 36 34 31 30 26 38 42 40 43 41 39 38 42 42 42 48 50 51 52 52
47 47 47 47 47 47 48 48 48 48 49 51 53 55 47 36 25 29 50 49 45 37 33 32 35 37 34 28 27 32 39 41 41 39 39 37 38 42 42 45 49 50 51 51 51
48 48 47 46 46 47 47 48 48 48 49 51 53 54 44 27 27 37 42 41 34 33 34 36 38 39 34 28 28 35 42 42 41 40 40 38 39 42 45 48 49 50 50 50 50
48 48 48 46 47 47 47 47 47 47 48 51 54 52 40 27 36 39 38 33 34 34 32 38 39 35 31 29 31 33 38 41 41 40 39 38 35 43 46 48 49 49 49 50 49
47 48 47 47 46 46 46 46 45 46 49 53 54 50 26 38 38 35 33 33 33 34 37 37 36 33 32 32 30 30 39 33 38 40 39 36 32 47 48 48 49 49 49 51 50
47 48 47 46 46 45 45 44 45 49 52 53 47 46 26 36 29 30 31 29 31 31 33 33 32 31 31 29 28 35 32 34 35 39 37 36 32 45 52 49 48 50 53 53 53
48 47 47 46 46 45 44 43 47 50 51 50 44 36 32 25 23 20 22 27 29 28 27 27 29 28 29 28 24 28 33 36 33 34 38 36 35 42 50 49 49 52 52 54 53
48 47 46 45 45 44 42 46 41 44 43 27 25 32 31 27 26 21 17 19 26 26 23 25 24 24 26 28 29 29 31 28 35 36 33 33 33 37 47 48 52 52 52 51 52
48 47 46 45 45 42 45 44 43 44 39 40 40 40 39 37 27 15 16 16 26 23 25 23 22 26 27 28 28 28 29 30 35 36 35 33 33 36 45 45 52 51 50 51 55
48 47 46 45 43 43 36 42 48 51 43 37 36 32 36 35 29 21 19 25 25 25 24 22 23 25 25 25 26 26 25 25 28 28 32 25 23 36 44 47 51 52 51 53 54
48 47 46 45 34 29 40 40 42 54 30 22 33 25 31 27 22 24 21 23 27 24 27 24 25 24 25 26 26 25 26 26 26 24 20 23 18 21 43 44 48 50 52 54 54
47 47 46 44 38 28 39 40 43 52 -1 9 26 25 25 23 20 20 22 22 23 25 26 25 27 26 25 25 27 26 26 27 26 23 21 21 17 24 43 41 43 49 49 50 51
47 46 46 36 35 37 35 40 51 31 9 18 21 21 24 23 18 17 19 20 27 24 25 26 28 27 26 26 25 25 27 27 25 23 21 21 18 24 35 31 35 44 49 48 48
47 46 45 41 23 32 36 46 30 16 18 15 17 16 19 20 19 16 15 16 17 21 21 23 23 23 24 22 23 27 26 23 22 20 19 21 20 20 30 29 29 39 47 48 51
47 46 43 40 37 36 37 42 21 17 21 23 19 17 13 16 17 16 16 13 21 21 20 19 18 21 23 23 21 26 26 24 20 17 15 21 17 21 28 31 34 40 45 51 54
45 39 36 35 38 32 38 30 17 31 25 19 16 17 19 18 16 16 17 15 17 21 16 20 19 21 22 23 25 24 25 27 22 25 21 21 23 25 30 32 34 37 45 52 53
37 33 31 36 36 34 37 18 24 34 28 24 18 19 17 18 17 17 15 17 15 21 19 20 17 23 22 24 26 23 26 23 27 19 19 21 19 18 26 28 32 33 36 42 46
32 26 27 34 38 37 20 19 18 25 25 27 25 22 27 24 18 16 14 15 17 19 20 19 20 17 21 19 25 24 23 25 26 24 19 18 19 23 26 28 31 33 37 38 43
29 25 33 42 33 35 21 21 21 19 22 25 28 29 28 29 29 25 17 14 18 17 19 22 21 17 17 22 25 25 23 23 19 18 27 23 21 27 26 26 30 31 36 40 41
28 25 42 42 27 30 26 19 22 22 24 25 26 28 29 27 25 29 26 28 23 22 17 25 22 18 17 19 22 19 22 25 27 25 19 17 18 25 25 25 28 31 37 41 42
32 24 25 42 36 26 24 21 22 24 23 26 26 26 26 25 27 25 26 29 30 26 29 28 25 18 16 18 20 19 20 23 22 19 19 22 20 24 24 23 23 28 38 42 43
31 29 33 32 36 36 31 26 23 25 25 26 25 25 25 24 24 24 30 30 30 27 27 27 21 25 24 22 23 22 22 21 20 20 17 17 20 22 23 22 22 27 33 41 42
30 26 36 36 37 39 36 34 31 25 29 26 25 23 22 22 25 25 30 32 29 30 28 29 22 24 23 24 22 19 20 20 21 22 24 24 23 36 33 33 34 35 38 40 41
35 33 36 34 35 37 37 35 32 32 32 32 27 23 21 25 35 36 36 37 37 30 29 28 25 23 17 24 23 18 20 20 20 21 21 17 27 38 34 37 38 38 39 39 41
Wind_Speed
20 21 21 22 22 22 22 21 21 20 18 17 16 16 17 17 19 1 12 12 10 11 2 4 4 12 2 6 9 8 6 12 8 8 8 3 7 5 11 22 6 10 17 21 31
21 21 21 22 23 23 22 23 22 22 19 18 16 15 15 16 5 12 17 15 20 8 8 10 10 6 6 6 2 5 8 15 14 19 9 7 7 13 13 18 3 8 20 32 30
21 22 23 23 23 23 23 23 23 23 21 19 18 16 14 10 5 9 11 27 18 14 10 5 3 4 9 9 6 4 11 8 12 15 13 10 6 7 20 12 17 30 34 33 32
22 24 24 24 25 25 24 24 24 23 21 19 18 17 17 1 4 3 5 20 17 11 4 3 1 3 6 6 5 6 6 13 6 5 2 7 5 13 22 14 20 37 39 32 28
23 23 25 26 26 26 26 26 25 24 21 18 15 14 2 2 11 7 3 12 11 9 10 7 6 5 8 5 11 4 8 5 2 7 3 2 6 10 10 14 26 30 33 30 26
22 24 26 27 28 28 27 27 26 24 21 17 13 9 1 9 6 6 12 12 10 11 8 11 6 4 10 9 2 5 12 7 7 8 7 8 2 10 3 24 28 32 30 26 24
22 24 25 28 29 30 29 28 29 26 22 15 9 4 4 19 4 4 6 10 11 12 14 8 7 6 4 4 6 5 7 4 8 4 1 4 7 5 22 24 30 27 23 20 11
23 24 26 27 30 31 32 32 31 28 19 10 6 4 9 6 7 7 12 8 10 14 13 7 6 8 3 1 7 5 5 6 3 3 4 5 9 7 12 12 20 22 19 17 11
22 23 25 28 30 32 34 36 34 18 7 4 4 4 10 13 5 16 19 15 15 13 9 7 6 2 3 4 4 8 2 4 7 6 2 4 7 13 15 18 25 22 21 20 20
22 24 26 29 31 32 36 36 15 5 3 5 5 3 8 6 6 7 12 19 11 10 9 4 2 0 1 2 11 4 4 5 6 2 8 12 19 9 22 22 23 29 24 25 28
22 24 27 29 33 32 24 8 5 1 1 9 5 5 7 7 6 9 13 8 8 6 12 5 5 11 12 14 5 7 10 14 8 12 5 15 22 9 23 17 23 25 22 22 17
18 22 26 30 32 36 8 4 3 4 11 13 24 20 24 8 7 7 9 9 9 13 9 8 16 15 16 14 13 12 18 21 10 13 11 21 20 5 26 22 28 27 22 19 15
16 19 24 31 37 12 8 5 11 4 6 11 12 12 13 10 9 9 11 10 7 9 15 17 13 17 16 19 16 18 14 7 9 1 9 2 5 2 5 8 16 14 18 20 27
14 17 20 30 6 11 1 18 15 2 5 8 9 10 10 7 8 14 7 6 6 17 10 15 22 18 15 14 14 16 15 5 4 6 6 6 11 6 4 8 14 20 26 25 24
13 14 16 17 12 7 10 21 14 2 6 6 7 7 16 18 5 11 13 6 18 12 10 14 9 16 18 21 18 17 8 4 6 5 3 10 6 4 10 17 24 24 26 25 28
12 11 12 6 7 11 20 19 1 2 12 6 8 13 13 21 7 2 11 5 7 16 15 15 10 6 14 18 10 7 4 6 6 4 8 8 4 4 11 18 17 20 27 26 28
13 12 6 3 7 9 20 2 4 11 4 6 10 14 20 18 19 7 7 19 17 17 22 14 20 12 8 14 12 3 5 4 4 3 12 6 6 13 21 18 8 25 29 30 23
13 11 9 13 10 4 10 3 14 9 14 3 6 16 18 13 20 16 11 22 15 13 12 18 16 19 10 9 10 5 9 9 6 5 7 5 6 5 13 8 6 18 24 23 22
4 7 6 12 16 7 3 15 17 9 10 5 2 10 14 17 9 21 17 19 17 24 19 12 15 12 14 14 15 9 8 9 6 1 2 6 8 5 8 12 17 18 21 26 28
3 5 12 9 18 12 6 22 11 8 3 0 8 5 12 19 17 18 18 12 17 23 19 11 8 7 14 3 11 21 11 5 2 9 13 7 6 6 7 10 10 12 16 24 26
5 4 13 19 15 9 19 15 13 15 6 2 4 7 1 1 15 16 14 14 24 20 23 19 13 23 3 7 13 6 8 4 6 8 11 9 8 8 15 15 16 16 17 16 20
8 6 5 21 13 8 22 8 8 7 18 8 4 5 3 1 2 3 17 20 20 19 21 18 12 19 26 8 4 2 13 15 13 9 6 7 17 6 15 11 17 21 22 17 14
5 6 4 10 19 17 11 17 10 5 9 3 8 7 4 3 1 4 2 3 1 11 21 14 9 17 17 7 1 5 5 7 6 4 14 15 9 9 13 16 2 11 23 20 14
4 6 7 13 7 16 12 19 16 16 24 11 9 8 8 8 5 6 7 2 4 4 7 11 8 18 25 9 6 6 10 11 11 10 9 12 10 8 13 18 14 9 18 17 17
5 9 6 9 24 18 11 8 22 15 21 9 8 20 8 9 8 13 8 4 1 5 1 5 8 6 7 8 6 7 8 9 12 14 18 15 11 14 17 19 20 10 14 22 22
7 6 1 2 8 20 24 12 13 22 13 22 21 8 12 10 10 4 10 5 5 3 3 2 5 4 4 2 2 4 5 6 6 8 11 7 10 9 9 7 16 18 11 23 25
6 3 1 2 3 6 20 18 9 13 10 18 20 19 14 8 7 9 6 5 3 7 5 5 7 5 5 3 3 15 9 9 5 3 4 9 4 5 6 12 17 18 19 11 15
Wind_Direction
352 350 346 345 341 340 339 338 337 332 330 329 329 326 325 329 321 176 240 220 200 211 173 283 241 250 151 234 184 149 154 193 210 179 244 270 182 128 129 140 180 190 153 155 144
351 349 345 344 339 337 335 333 332 329 327 328 327 323 321 334 315 259 234 227 237 217 234 239 248 348 301 278 298 180 176 205 183 199 224 223 170 150 138 152 82 99 121 135 144
348 346 345 341 336 334 331 329 326 325 324 326 323 320 318 328 313 251 224 221 234 202 197 194 273 327 276 276 256 211 211 197 200 210 231 248 248 191 155 177 173 152 147 150 150
347 345 342 336 333 332 327 324 321 321 321 323 320 318 315 171 256 249 299 208 203 177 219 226 231 248 264 273 297 285 276 165 227 201 215 240 214 192 170 196 176 152 154 152 158
343 341 338 334 332 328 324 320 316 316 316 318 315 315 327 296 254 261 159 150 149 171 211 196 225 206 259 292 318 24 109 89 53 164 96 80 89 186 207 159 141 145 154 156 160
339 338 336 333 331 325 322 317 313 311 310 311 303 305 224 261 252 220 148 145 178 188 206 193 211 196 291 275 76 34 75 114 51 19 4 347 159 126 147 138 144 152 159 159 166
337 335 332 331 327 323 321 316 311 306 304 299 274 232 223 241 63 111 179 190 194 196 217 201 232 264 244 327 331 89 112 24 24 19 262 6 306 212 159 156 151 156 150 151 153
334 332 331 328 327 324 321 316 308 301 295 282 215 201 247 243 269 264 219 254 227 221 233 226 256 273 309 276 16 19 71 37 306 242 191 129 278 157 135 136 136 158 146 146 155
329 330 329 326 326 325 321 315 307 299 234 143 157 201 258 307 188 235 202 230 227 232 247 278 255 185 341 60 358 27 64 21 313 226 216 227 268 171 162 152 166 137 127 139 168
325 327 327 326 325 327 324 312 294 319 152 200 254 279 259 240 222 203 190 211 215 224 255 216 138 168 327 162 214 188 203 244 250 268 210 266 265 176 173 176 166 141 141 167 182
322 325 326 325 325 325 336 351 355 330 227 214 216 241 279 332 262 242 238 181 194 219 226 225 205 218 236 234 222 246 246 282 248 240 242 249 251 223 175 167 153 158 168 175 198
317 323 324 324 322 319 317 352 359 272 302 258 250 259 269 279 303 246 170 195 181 206 195 223 238 228 239 253 250 237 246 261 282 261 218 265 268 260 183 185 163 163 175 176 159
313 321 324 324 318 322 310 357 346 17 264 281 219 219 233 182 228 242 164 195 184 190 193 212 232 229 239 257 262 262 215 224 216 260 193 293 314 182 174 125 144 170 176 177 173
305 317 328 333 315 337 300 333 337 8 296 264 211 230 186 176 236 230 197 153 185 216 202 225 242 241 243 243 244 269 269 243 96 72 329 17 304 349 197 163 178 164 183 190 189
292 310 326 335 296 300 334 327 323 65 277 242 201 183 172 176 170 220 195 169 204 187 185 226 221 227 241 249 255 233 259 122 107 77 347 299 311 308 135 191 214 187 188 195 196
276 295 327 341 302 261 325 317 56 134 238 271 180 169 144 196 215 69 171 182 182 204 229 233 252 234 242 251 264 251 134 63 80 94 296 275 238 229 189 215 223 189 195 197 207
262 277 285 283 255 333 332 334 184 212 255 228 191 170 173 193 221 220 184 192 192 194 221 249 259 268 254 277 292 176 121 274 281 282 264 310 296 256 217 239 262 178 189 195 201
256 280 257 237 249 313 338 150 221 215 208 2 199 183 186 180 214 209 198 205 205 187 201 225 246 243 230 212 223 196 167 193 213 189 245 296 250 296 251 265 150 140 177 181 193
264 279 254 254 222 167 201 206 219 200 205 223 7 197 208 208 183 206 216 218 209 189 200 203 233 257 246 238 205 204 194 184 208 87 232 254 284 54 93 112 113 121 159 179 189
185 277 254 229 152 151 188 228 219 215 287 158 214 209 207 199 196 197 206 214 218 201 188 213 257 230 250 236 250 216 185 187 98 218 241 251 241 269 180 154 148 162 175 185 200
150 265 263 170 151 173 216 224 241 260 305 282 226 228 164 109 207 196 214 230 196 203 192 199 209 255 231 214 228 160 165 99 150 157 209 231 244 186 185 190 192 206 207 203 164
151 222 284 151 169 200 222 209 235 253 268 252 301 220 206 43 314 239 217 209 193 189 197 199 203 226 243 213 166 201 181 173 196 195 198 212 240 197 176 190 207 225 218 216 193
187 230 277 183 191 215 228 227 246 261 244 238 227 214 166 143 328 303 319 41 175 182 191 167 210 222 248 254 154 195 213 162 128 121 223 234 255 280 292 302 309 240 218 213 193
195 213 214 212 216 211 206 221 215 217 257 258 287 304 277 238 213 277 347 347 17 136 148 149 160 202 213 221 175 199 201 183 179 207 218 222 243 252 274 286 286 238 223 218 194
205 224 205 206 216 231 205 233 216 214 214 245 235 242 248 228 222 249 243 232 62 147 66 131 164 158 163 193 184 225 236 231 211 219 220 239 234 258 257 263 274 223 219 206 209
187 215 322 263 191 208 222 223 218 214 223 230 230 205 217 226 226 202 199 195 204 174 124 31 151 125 155 121 72 221 205 239 256 251 243 246 266 19 4 6 36 14 258 210 208
238 293 98 265 289 224 211 219 217 215 260 248 221 220 234 249 177 155 164 126 158 180 148 138 135 131 215 134 5 261 236 213 195 246 254 259 192 346 340 25 32 15 7 301 242